Weather History for Socorro, NM

Change the Weather History Date:

Tuesday, May 28, 2013

  Actual Average Record
Temperature  
Mean Temperature 74 °F -  
Max Temperature 91 °F 86 °F 96 °F (2011)
Min Temperature 58 °F 48 °F 46 °F (2012)
Cooling Degree Days 10    
Growing Degree Days 24 (Base 50)    
Moisture  
Dew Point 11 °F    
Average Humidity 9    
Maximum Humidity 19    
Minimum Humidity 4    
Precipitation  
Precipitation 0.00 in - - ()
Sea Level Pressure  
Sea Level Pressure 29.80 in    
Wind  
Wind Speed 8 mph (WSW)    
Max Wind Speed 23 mph    
Max Gust Speed 36 mph    
Visibility 10 miles    
Events      
Averages and records for this station are not official NWS values.
T = Trace of Precipitation, MM = Missing Value Source: NWS Daily Summary

Daily Weather History Graph

Daily Weather History Graph

Search for Another Location

Airport:

Trip Planner

Search our weather history database for the weather conditions in past years. The results will help you decide how hot, cold, wet, or windy it might be!

Date:

Astronomy

May. 28, 2013 Rise Set
Actual Time 5:58 AM MDT 8:11 PM MDT
Civil Twilight 5:30 AM MDT 8:40 PM MDT
Nautical Twilight 4:55 AM MDT 9:15 PM MDT
Astronomical Twilight 4:17 AM MDT 9:52 PM MDT
Moon 11:43 PM MDT (5/28) 9:46 AM MDT (5/28)
Length of Visible Light 15h 09m
Length of Day
14h 12m
Waning Gibbous, 82% of the Moon is Illuminated
May 28
Waning Gibbous
May 31
Last Quarter
Jun 8
New
Jun 16
First Quarter
Jun 23
Full

Hourly Weather History & Observations

Time (MDT) Temp. Dew Point Humidity Pressure Visibility Wind Dir Wind Speed Gust Speed Precip Events Conditions
12:15 AM 67.8 °F 15.8 °F 14% 29.90 in 10.0 mi NW 4.6 mph - N/A   Clear
12:35 AM 68.9 °F 14.9 °F 13% 29.90 in 10.0 mi North 4.6 mph - N/A   Clear
12:55 AM 67.5 °F 14.7 °F 13% 29.90 in 10.0 mi NNW 5.8 mph - N/A   Clear
1:15 AM 66.2 °F 14.0 °F 13% 29.89 in 10.0 mi NNW 6.9 mph - N/A   Clear
1:35 AM 67.1 °F 14.4 °F 13% 29.90 in 10.0 mi NNW 6.9 mph - N/A   Clear
1:55 AM 66.2 °F 14.4 °F 13% 29.89 in 10.0 mi NNW 9.2 mph - N/A   Clear
2:15 AM 68.2 °F 14.7 °F 13% 29.89 in 10.0 mi NNW 8.1 mph - N/A   Clear
2:35 AM 66.4 °F 13.6 °F 13% 29.89 in 10.0 mi NNW 8.1 mph - N/A   Clear
2:55 AM 65.5 °F 14.0 °F 14% 29.88 in 10.0 mi North 12.7 mph - N/A   Clear
3:15 AM 66.7 °F 13.6 °F 13% 29.88 in 10.0 mi North 13.8 mph - N/A   Clear
3:35 AM 65.3 °F 13.1 °F 13% 29.88 in 10.0 mi NNW 10.4 mph - N/A   Clear
3:55 AM 61.7 °F 15.8 °F 17% 29.88 in 10.0 mi East 3.5 mph - N/A   Clear
4:15 AM 62.2 °F 13.1 °F 15% 29.88 in 10.0 mi North 5.8 mph - N/A   Clear
4:35 AM 61.3 °F 15.1 °F 17% 29.88 in 10.0 mi NNE 6.9 mph - N/A   Clear
4:55 AM 59.7 °F 16.7 °F 19% 29.88 in 10.0 mi ENE 8.1 mph - N/A   Clear
5:15 AM 59.9 °F 16.0 °F 18% 29.88 in 10.0 mi Calm Calm - N/A   Clear
5:35 AM 62.2 °F 12.7 °F 14% 29.89 in 10.0 mi Calm Calm - N/A   Clear
5:55 AM 60.1 °F 12.0 °F 15% 29.89 in 10.0 mi Calm Calm - N/A   Clear
6:15 AM 58.3 °F 11.5 °F 16% 29.90 in 10.0 mi Calm Calm - N/A   Clear
6:35 AM 59.4 °F 11.5 °F 15% 29.90 in 10.0 mi Calm Calm - N/A   Clear
6:55 AM 60.6 °F 12.2 °F 15% 29.90 in 10.0 mi Calm Calm - N/A   Clear
7:15 AM 64.9 °F 12.2 °F 13% 29.90 in 10.0 mi Calm Calm - N/A   Clear
7:35 AM 66.7 °F 12.0 °F 12% 29.90 in 10.0 mi Calm Calm - N/A   Clear
7:55 AM 68.5 °F 11.8 °F 11% 29.90 in 10.0 mi Calm Calm - N/A   Clear
8:15 AM 69.6 °F 20.7 °F 16% 29.90 in 10.0 mi East 3.5 mph - N/A   Clear
8:35 AM 68.5 °F 18.3 °F 15% 29.90 in 10.0 mi SSE 5.8 mph - N/A   Clear
8:55 AM 69.4 °F 17.2 °F 14% 29.90 in 10.0 mi Calm Calm - N/A   Clear
9:15 AM 71.2 °F 16.5 °F 12% 29.90 in 10.0 mi East 3.5 mph - N/A   Clear
9:35 AM 73.2 °F 16.9 °F 12% 29.89 in 10.0 mi Calm Calm - N/A   Clear
9:55 AM 74.7 °F 13.6 °F 10% 29.89 in 10.0 mi North 3.5 mph - N/A   Clear
10:15 AM 75.6 °F 14.0 °F 10% 29.89 in 10.0 mi East 3.5 mph - N/A   Clear
10:35 AM 76.6 °F 14.7 °F 10% 29.87 in 10.0 mi ESE 4.6 mph - N/A   Clear
10:55 AM 78.3 °F 15.6 °F 9% 29.87 in 10.0 mi Calm Calm - N/A   Clear
12:15 PM 86.0 °F 13.5 °F 7% 29.82 in - South 10.4 mph - N/A   Unknown
12:35 PM 86.2 °F 13.1 °F 7% 29.81 in 10.0 mi SSE 19.6 mph 24.2 mph N/A   Clear
12:55 PM 88.0 °F 7.3 °F 5% 29.80 in 10.0 mi SSW 17.3 mph 25.3 mph N/A   Clear
1:15 PM 88.3 °F 6.6 °F 5% 29.78 in 10.0 mi South 18.4 mph 29.9 mph N/A   Clear
1:35 PM 88.7 °F 5.5 °F 4% 29.78 in 10.0 mi South 21.9 mph 27.6 mph N/A   Clear
1:55 PM 89.8 °F 5.9 °F 4% 29.77 in 10.0 mi South 18.4 mph 27.6 mph N/A   Clear
2:15 PM 89.2 °F 5.5 °F 4% 29.76 in 10.0 mi South 18.4 mph 31.1 mph N/A   Clear
2:35 PM 86.7 °F 6.4 °F 5% 29.75 in 10.0 mi SSE 15.0 mph 27.6 mph N/A   Clear
2:55 PM 87.4 °F 7.3 °F 5% 29.74 in 10.0 mi SSE 19.6 mph 26.5 mph N/A   Clear
3:15 PM 87.3 °F 6.1 °F 5% 29.73 in 10.0 mi SE 12.7 mph 27.6 mph N/A   Clear
3:35 PM 88.2 °F 5.4 °F 4% 29.73 in 10.0 mi SSW 15.0 mph 35.7 mph N/A   Clear
3:55 PM 86.9 °F 5.2 °F 5% 29.71 in 10.0 mi SE 8.1 mph 17.3 mph N/A   Clear
4:15 PM 90.9 °F 5.0 °F 4% 29.70 in 10.0 mi South 12.7 mph 23.0 mph N/A   Clear
4:35 PM 91.0 °F 4.8 °F 4% 29.68 in 10.0 mi SSE 13.8 mph 23.0 mph N/A   Clear
4:55 PM 90.9 °F 8.6 °F 5% 29.68 in 10.0 mi SSE 15.0 mph 25.3 mph N/A   Clear
5:15 PM 91.2 °F 7.2 °F 4% 29.67 in 10.0 mi South 17.3 mph 28.8 mph N/A   Clear
5:35 PM 89.6 °F 6.8 °F 4% 29.66 in 10.0 mi South 17.3 mph 28.8 mph N/A   Clear
5:55 PM 88.9 °F 6.4 °F 4% 29.65 in 10.0 mi South 16.1 mph - N/A   Clear
6:15 PM 88.7 °F 1.6 °F 4% 29.65 in 10.0 mi SW 12.7 mph - N/A   Clear
6:35 PM 86.9 °F 4.1 °F 4% 29.66 in 10.0 mi West 20.7 mph 26.5 mph N/A   Clear
6:55 PM 85.6 °F 3.0 °F 4% 29.66 in 10.0 mi West 23.0 mph 27.6 mph N/A   Clear
7:15 PM 84.6 °F 0.9 °F 4% 29.66 in 10.0 mi West 17.3 mph 27.6 mph N/A   Clear
7:35 PM 83.7 °F 3.4 °F 5% 29.67 in 10.0 mi West 15.0 mph 21.9 mph N/A   Clear
7:55 PM 82.8 °F 5.0 °F 5% 29.67 in 10.0 mi West 15.0 mph 19.6 mph N/A   Clear
8:15 PM 82.0 °F 7.0 °F 6% 29.68 in 10.0 mi West 13.8 mph 19.6 mph N/A   Clear
8:35 PM 81.5 °F 8.6 °F 6% 29.68 in 10.0 mi West 16.1 mph 19.6 mph N/A   Clear
8:55 PM 80.8 °F 9.1 °F 7% 29.70 in 10.0 mi West 13.8 mph - N/A   Clear
9:15 PM 79.9 °F 9.1 °F 7% 29.70 in 10.0 mi WSW 10.4 mph - N/A   Clear
9:35 PM 80.2 °F 10.6 °F 7% 29.70 in 10.0 mi West 20.7 mph 28.8 mph N/A   Clear
9:55 PM 79.7 °F 11.8 °F 8% 29.72 in 10.0 mi WSW 20.7 mph 29.9 mph N/A   Clear
10:15 PM 78.8 °F 13.1 °F 8% 29.73 in 10.0 mi WSW 18.4 mph 25.3 mph N/A   Clear
10:35 PM 78.1 °F 14.0 °F 9% 29.74 in 10.0 mi WSW 15.0 mph 23.0 mph N/A   Clear
10:55 PM 77.4 °F 14.0 °F 9% 29.75 in 10.0 mi West 9.2 mph - N/A   Clear
11:15 PM 77.2 °F 13.8 °F 9% 29.75 in 10.0 mi West 10.4 mph - N/A   Clear
11:35 PM 77.0 °F 12.4 °F 9% 29.75 in 10.0 mi West 11.5 mph 19.6 mph N/A   Clear
11:55 PM 76.3 °F 11.1 °F 8% 29.76 in 10.0 mi West 16.1 mph - N/A   Clear